FENGYUN 1C DEB, 37464

Orbit data source: Space-Track

FENGYUN 1C DEB, 37464 is space debris in SSO originally from a launch on Mon, 10 May 1999 UTC launched from the Taiyaun Space Center, China (TSC). Fengyun 1C debris stems from the Chinese weather satellite Fengyun-1C, which was intentionally destroyed by a Chinese anti-satellite missile in 2007. This event dramatically increased the amount of space debris, with thousands of trackable fragments posing hazards to satellites and human spaceflight. The Fengyun 1C debris cloud has become a focal point in discussions about space sustainability and the need for international regulations to prevent the creation of new debris.

Loading next visibility...
Identifier
37464, 1999-025EJJ
Orbit
SSO
Country
Flag of CNCN / PRC
Related business
Manufacturer
Unknown
Mission
Spacecraft
Bus & Motor
Unknown
Mass
Unknown
Launch date (UTC)
1999-05-10 (27 years ago)
Launch vehicle
Unknown
Launch site
Taiyaun Space Center, China (TSC)
Object type
Payload
Rocket body
Debris
Shape & HBR
Unknown shape, 0.1 m
Radar Cross Section
Small (<0.1 m²)

Expand to show TLE details & history
Last TLE update: 1 week ago

TLE from 1 week ago
0 FENGYUN 1C DEB
1 37464U 99025EJJ 26248.73551132  .00001217  00000-0  11088-2 0  9999
2 37464 102.7147 250.4923 0448462 251.8413 103.3399 13.48657445645195
Epoch: 2026-09-05T17:39Z
TLE epoch observation values (Epoch: 2026-09-05T17:39:08.178Z)
Latitude
-0.00002°
Longitude
0.86751°
Altitude
1,170.989 km
Speed
7.223 km/s
True Right ascension
16h 41m 58s
True Declination
0° 00' 00"
Sunlit
Object was in daylight at epoch
Visualization orbit readout
Latitude
Unknown
Longitude
Unknown
Altitude
Unknown
Speed
Unknown
Apparent Right ascension
Unknown
Apparent Declination
Unknown
Sunlit
N/A
Visualization observer readout
Local Sidereal Time
12:37:24
Azimuth
Unknown
Elevation
Unknown
Doppler factor
Unknown
Orbital elements
Apogee altitude
1,408.906 km
Perigee altitude
740.445 km
Semi-major axis
7,452.812 km
Eccentricity
0.04485
Inclination
102.7147°
RAAN
250.4923°
Arg. of periapsis
251.8413°
True anomaly
108.27028°
Mean anomaly
103.3399°
Eccentric anomaly
105.81217°
Mean motion
3.37336 °/min
Orbital period
106.72 mins
BSTAR
0.0011088
Loading maneuver chart data...
Computing Atmospheric mass density...
Loading historical data...
Loading historical data...
Loading historical data...
Loading historical data...
Loading historical data...
Loading historical data...
Loading historical data...

Documentation

Showing up to 5 results
|